Akri, Greece

7:13 PM EET on February 25, 2017 (GMT +0200)
Filippos

Weather History for LGKZ - September, 2012

Change the Weather History Date:

Saturday, September 29, 2012

  Actual Average Record
Temperature  
Mean Temperature 74 °F -  
Max Temperature 87 °F - - ()
Min Temperature 60 °F - - ()
Cooling Degree Days 8    
Growing Degree Days 24 (Base 50)    
Moisture  
Dew Point 47 °F    
Average Humidity 41    
Maximum Humidity 59    
Minimum Humidity 21    
Precipitation  
Precipitation 0.00 in - - ()
Sea Level Pressure  
Sea Level Pressure 30.18 in    
Wind  
Wind Speed 5 mph ()    
Max Wind Speed 7 mph    
Max Gust Speed -    
T = Trace of Precipitation, MM = Missing Value Source: Averaged Metar Reports

Daily Weather History Graph

Daily Weather History Graph

Search for Another Location

Airport or City:

Trip Planner

Search our weather history database for the weather conditions in past years. The results will help you decide how hot, cold, wet, or windy it might be!

Date:

Astronomy

Sep. 29, 2012 Rise Set
Actual Time 7:27 AM EEST 7:18 PM EEST
Civil Twilight 7:00 AM EEST 7:45 PM EEST
Nautical Twilight 6:28 AM EEST 8:16 PM EEST
Astronomical Twilight 5:56 AM EEST 8:48 PM EEST
Moon 6:41 PM EEST (9/29) 6:40 AM EEST (9/29)
Length of Visible Light 12h 44m
Length of Day
11h 50m
Waxing Gibbous, 99% of the Moon is Illuminated
Sep 29
Waxing Gibbous
Sep 30
Full
Oct 8
Last Quarter
Oct 15
New
Oct 22
First Quarter

Hourly Weather History & Observations

Time (EEST) Temp. Heat Index Dew Point Humidity Pressure Visibility Wind Dir Wind Speed Gust Speed Precip Events Conditions
12:20 AM 68.0 °F - 46.4 °F 46% 30.18 in - North 6.9 mph - N/A   Unknown
12:50 AM 68.0 °F - 46.4 °F 46% 30.18 in - NNW 5.8 mph - N/A   Unknown
1:20 AM 68.0 °F - 46.4 °F 46% 30.18 in - NNW 6.9 mph - N/A   Unknown
1:50 AM 66.2 °F - 46.4 °F 49% 30.18 in - North 6.9 mph - N/A   Unknown
2:20 AM 66.2 °F - 46.4 °F 49% 30.18 in - NNW 5.8 mph - N/A   Unknown
2:50 AM 68.0 °F - 46.4 °F 46% 30.18 in - NW 4.6 mph - N/A   Unknown
3:20 AM 68.0 °F - 46.4 °F 46% 30.18 in - NW 4.6 mph - N/A   Unknown
3:50 AM 66.2 °F - 46.4 °F 49% 30.18 in - NNW 4.6 mph - N/A   Unknown
4:20 AM 64.4 °F - 46.4 °F 52% 30.18 in - NNW 5.8 mph - N/A   Unknown
4:50 AM 64.4 °F - 46.4 °F 52% 30.18 in - NW 4.6 mph - N/A   Unknown
5:20 AM 62.6 °F - 46.4 °F 55% 30.18 in - NNW 5.8 mph - N/A   Unknown
5:50 AM 62.6 °F - 46.4 °F 55% 30.18 in - NW 5.8 mph - N/A   Unknown
6:20 AM 66.2 °F - 46.4 °F 49% 30.18 in - WNW 5.8 mph - N/A   Unknown
6:50 AM 64.4 °F - 46.4 °F 52% 30.18 in - NW 5.8 mph - N/A   Unknown
7:20 AM 60.8 °F - 46.4 °F 59% 30.18 in - Variable 1.2 mph - N/A   Unknown
7:50 AM 62.6 °F - 46.4 °F 55% 30.18 in - NNW 4.6 mph - N/A   Unknown
8:20 AM 64.4 °F - 46.4 °F 52% 30.21 in - Calm Calm - N/A   Unknown
8:50 AM 68.0 °F - 48.2 °F 49% 30.21 in - Calm Calm - N/A   Clear
9:50 AM 71.6 °F - 50.0 °F 46% 30.21 in - Variable 3.5 mph - N/A   Unknown
10:20 AM 71.6 °F - 51.8 °F 50% 30.21 in - Variable 3.5 mph - N/A   Unknown
10:50 AM 75.2 °F - 50.0 °F 41% 30.21 in - Variable 1.2 mph - N/A   Unknown
11:20 AM 78.8 °F - 50.0 °F 36% 30.21 in - Variable 2.3 mph - N/A   Unknown
11:50 AM 80.6 °F - 50.0 °F 34% 30.21 in - SSE 4.6 mph - N/A   Unknown
12:20 PM 82.4 °F - 50.0 °F 32% 30.21 in - Variable 3.5 mph - N/A   Unknown
12:50 PM 82.4 °F 81.4 °F 53.6 °F 37% 30.21 in - SSE 4.6 mph - N/A   Unknown
1:20 PM 82.4 °F - 51.8 °F 35% 30.21 in - Variable 3.5 mph - N/A   Unknown
1:50 PM 84.2 °F - 50.0 °F 30% 30.18 in - SSE 4.6 mph - N/A   Unknown
2:20 PM 86.0 °F - 48.2 °F 27% 30.18 in - SSE 4.6 mph - N/A   Unknown
2:50 PM 86.0 °F - 46.4 °F 25% 30.18 in - SSE 6.9 mph - N/A   Unknown
3:20 PM 86.0 °F - 44.6 °F 23% 30.15 in - SSE 6.9 mph - N/A   Unknown
3:50 PM 87.8 °F - 44.6 °F 22% 30.15 in - SE 5.8 mph - N/A   Unknown
4:20 PM 87.8 °F - 42.8 °F 21% 30.15 in - SSE 6.9 mph - N/A   Unknown
4:50 PM 87.8 °F - 42.8 °F 21% 30.15 in - ESE 4.6 mph - N/A   Unknown
5:20 PM 86.0 °F - 42.8 °F 22% 30.15 in - SE 4.6 mph - N/A   Unknown
5:50 PM 86.0 °F - 42.8 °F 22% 30.12 in - SE 5.8 mph - N/A   Unknown
6:20 PM 84.2 °F - 42.8 °F 23% 30.12 in - SE 5.8 mph - N/A   Unknown
6:50 PM 80.6 °F - 44.6 °F 28% 30.15 in - Variable 3.5 mph - N/A   Unknown
7:20 PM 77.0 °F - 42.8 °F 29% 30.15 in - Variable 3.5 mph - N/A   Unknown
7:50 PM 75.2 °F - 44.6 °F 34% 30.15 in - Variable 3.5 mph - N/A   Unknown
8:20 PM 71.6 °F - 48.2 °F 43% 30.15 in - Variable 2.3 mph - N/A   Unknown
8:50 PM 69.8 °F - 48.2 °F 46% 30.15 in - Variable 2.3 mph - N/A   Unknown
9:20 PM 68.0 °F - 50.0 °F 52% 30.18 in - Variable 3.5 mph - N/A   Unknown
9:50 PM 68.0 °F - 50.0 °F 52% 30.18 in - Variable 2.3 mph - N/A   Unknown
10:20 PM 68.0 °F - 50.0 °F 52% 30.18 in - North 5.8 mph - N/A   Unknown
10:50 PM 68.0 °F - 50.0 °F 52% 30.18 in - North 5.8 mph - N/A   Unknown
11:20 PM 68.0 °F - 50.0 °F 52% 30.18 in - North 6.9 mph - N/A   Unknown
11:50 PM 68.0 °F - 50.0 °F 52% 30.18 in - NNW 6.9 mph - N/A   Unknown